Location: Boissi�res
(45.2500°N, 2.3667°E)
Time: 12:06:17
(UTC+00:00)

COSMOS 2428 - Pass Details

Date: 03 March 2021
Orbit: 845 x 858 km, 70.9° (Epoch: 18 April)

Event Time Altitude Azimuth Distance (km) Brightness Sun altitude
Rises 19:16:03 0° 178° (S) 3,390 5.7 -17.6°
Reaches altitude 10° 19:18:39 10° 170° (S) 2,459 4.9 -18.0°
Maximum altitude 19:23:44 36° 106° (ESE) 1,325 3.2 -18.9°
Enters shadow 19:24:45 33° 83° (E) 1,389 3.3 -19.1°
